Terminal Aerodrome Forecast
Issued by NWS

Home | Current Version | Previous Version | Text Only | Print | Product List | Glossary On
Versions: 1 2 3 4 5 6 7 8 9 10 11 12 13 14 15 16 17 18 19 20 21 22 23 24 25 26 27 28 29 30 31 32 33 34 35 36 37
000
FTUS44 KSJT 190500
TAFJCT
TAF
KJCT 190537Z 1906/2006 VRB03KT P6SM BKN014
     FM190900 VRB03KT P6SM BKN008
     FM191200 VRB03KT P6SM BKN012
     FM191600 31011G18KT P6SM SKC
     FM200000 36009G15KT P6SM SKC
     FM200100 01006KT P6SM SKC=

USA.gov is the U.S. government's official web portal to all federal, state and local government web resources and services.